Tracking 29790 objects as of 12-Oct-2024
HD Live streaming from Space Station
objects crossing your sky now

STARLINK 1056

Track STARLINK 1056 now!
10-day predictions
STARLINK 1056 is classified as:


NORAD ID: 44761
Int'l Code: 2019-074BA
Perigee: 553.5 km
Apogee: 555.5 km
Inclination: 53.1 °
Period: 95.6 minutes
Semi major axis: 6925 km
RCS: Unknown
Launch date: November 11, 2019
Source: United States (US)
Launch site: AIR FORCE EASTERN TEST RANGE (AFETR)
Your satellite tracking list
Your tracking list is empty




NASA's NSSDC Master Catalog

Two Line Element Set (TLE):
1 44761U 19074BA  24285.93663732 -.00026555  00000-0 -17735-2 0  9993
2 44761  53.0568  12.9453 0001444  77.9346 282.1805 15.06336897270939
Source of the keplerian elements: AFSPC